Zurück zum Katalog

SL-14 DEB

AktivPO
NORAD 45288·DEBRIS·🇷🇺 Russia

Gestartet Aug 15, 1991 von Plesetsk Cosmodrome

Loading…

Nächste Überflüge (nächste 24 Stunden)

TLE

AktuellSource: Space-Track

Epoche: Sep 14, 2026, 02:30 UTC

1 45288U 91056AA  26257.10437615  .00006421  00000-0  20464-1 0  9997
2 45288  82.6109 189.8056 0282959  14.6465 346.2629 12.90261714307806

Verfolge SL-14 DEB in Echtzeit mit AllMySat

Download on the App Store